TimeCST,TemperatureF,Dew PointF,Humidity,Sea Level PressureIn,VisibilityMPH,Wind Direction,Wind SpeedMPH,Gust SpeedMPH,PrecipitationIn,Events,Conditions,WindDirDegrees,DateUTC
12:15 AM,21.2,5.0,50,30.26,10.0,SW,12.7,17.3,N/A,,Clear,220,2013-11-25 06:15:00
12:35 AM,21.2,5.0,50,30.25,10.0,SSW,16.1,21.9,N/A,,Clear,210,2013-11-25 06:35:00
12:55 AM,21.2,6.8,54,30.24,10.0,SSW,10.4,20.7,N/A,,Clear,210,2013-11-25 06:55:00
1:15 AM,21.2,6.8,54,30.23,10.0,SW,13.8,18.4,N/A,,Clear,220,2013-11-25 07:15:00
1:35 AM,19.4,6.8,58,30.23,10.0,SW,9.2,19.6,N/A,,Clear,230,2013-11-25 07:35:00
1:55 AM,19.4,8.6,63,30.22,10.0,SW,10.4,-,N/A,,Clear,220,2013-11-25 07:55:00
2:15 AM,19.4,8.6,63,30.21,10.0,SW,10.4,16.1,N/A,,Clear,220,2013-11-25 08:15:00
2:35 AM,21.2,8.6,58,30.20,10.0,SW,12.7,17.3,N/A,,Clear,230,2013-11-25 08:35:00
2:55 AM,21.2,8.6,58,30.19,10.0,SW,13.8,24.2,N/A,,Clear,220,2013-11-25 08:55:00
3:15 AM,21.2,8.6,58,30.18,10.0,SW,12.7,19.6,N/A,,Clear,220,2013-11-25 09:15:00
3:35 AM,23.0,8.6,54,30.16,10.0,SSW,16.1,21.9,N/A,,Scattered Clouds,210,2013-11-25 09:35:00
3:55 AM,23.0,8.6,54,30.15,10.0,SSW,13.8,23.0,N/A,,Mostly Cloudy,210,2013-11-25 09:55:00
4:15 AM,23.0,8.6,54,30.14,10.0,SSW,13.8,20.7,N/A,,Overcast,210,2013-11-25 10:15:00
4:35 AM,23.0,8.6,54,30.13,10.0,SSW,15.0,21.9,N/A,,Overcast,210,2013-11-25 10:35:00
5:45 AM,23.0,8.6,54,30.10,10.0,SSW,11.5,23.0,N/A,,Mostly Cloudy,210,2013-11-25 11:45:00
6:30 AM,23.0,10.4,59,30.10,2.0,SW,11.5,28.8,N/A,Snow,Light Snow,230,2013-11-25 12:30:00
6:45 AM,21.2,15.8,80,30.09,1.0,SW,11.5,23.0,N/A,Snow,Light Snow,220,2013-11-25 12:45:00
7:00 AM,19.4,17.6,93,30.09,0.5,SW,11.5,-,N/A,Snow,Snow,220,2013-11-25 13:00:00
7:45 AM,21.2,19.4,93,30.08,0.5,SW,15.0,-,N/A,Snow,Light Snow,220,2013-11-25 13:45:00
8:45 AM,21.2,19.4,93,30.09,0.5,SW,11.5,23.0,N/A,,Overcast,230,2013-11-25 14:45:00
9:45 AM,21.2,19.4,93,30.07,1.2,SW,13.8,19.6,N/A,,Overcast,220,2013-11-25 15:45:00
10:05 AM,23.0,19.4,86,30.07,1.8,SW,13.8,19.6,N/A,,Overcast,220,2013-11-25 16:05:00
10:25 AM,23.0,19.4,86,30.05,4.0,SW,13.8,19.6,N/A,,Overcast,220,2013-11-25 16:25:00
10:45 AM,24.8,19.4,80,30.04,7.0,SW,13.8,19.6,N/A,,Overcast,220,2013-11-25 16:45:00
11:45 AM,24.8,21.2,86,30.03,10.0,SW,16.1,-,N/A,,Overcast,220,2013-11-25 17:45:00
12:45 PM,26.6,21.2,80,30.02,10.0,WSW,16.1,-,N/A,,Overcast,240,2013-11-25 18:45:00
1:45 PM,26.6,21.2,80,30.02,10.0,WSW,16.1,-,N/A,,Overcast,240,2013-11-25 19:45:00
2:45 PM,26.6,21.2,80,30.01,10.0,WSW,16.1,-,N/A,,Overcast,240,2013-11-25 20:45:00
3:45 PM,26.6,23.0,86,30.02,10.0,SW,11.5,-,N/A,,Overcast,230,2013-11-25 21:45:00
4:45 PM,26.6,23.0,86,30.02,10.0,SW,9.2,18.4,N/A,,Overcast,230,2013-11-25 22:45:00
5:45 PM,26.6,24.8,93,30.05,10.0,WSW,11.5,-,N/A,,Overcast,240,2013-11-25 23:45:00
6:45 PM,26.6,24.8,93,30.06,10.0,WSW,11.5,-,N/A,,Overcast,240,2013-11-26 00:45:00
7:30 PM,26.6,23.0,86,30.06,10.0,SW,11.5,-,N/A,,Scattered Clouds,230,2013-11-26 01:30:00
7:45 PM,26.6,21.2,80,30.06,10.0,SW,6.9,-,N/A,,Mostly Cloudy,230,2013-11-26 01:45:00
8:15 PM,26.6,23.0,86,30.05,10.0,SW,6.9,-,N/A,,Overcast,220,2013-11-26 02:15:00
8:35 PM,28.4,23.0,80,30.05,10.0,SSW,5.8,-,N/A,,Overcast,210,2013-11-26 02:35:00
8:45 PM,26.6,23.0,86,30.05,10.0,SW,9.2,-,N/A,,Overcast,220,2013-11-26 02:45:00
8:55 PM,28.4,23.0,80,30.05,10.0,SW,8.1,-,N/A,,Overcast,220,2013-11-26 02:55:00
9:15 PM,28.4,23.0,80,30.05,10.0,SW,6.9,-,N/A,,Overcast,230,2013-11-26 03:15:00
9:35 PM,28.4,23.0,80,30.04,10.0,SW,8.1,-,N/A,,Overcast,220,2013-11-26 03:35:00
9:55 PM,28.4,23.0,80,30.05,10.0,SW,8.1,-,N/A,,Overcast,230,2013-11-26 03:55:00
10:15 PM,28.4,23.0,80,30.04,10.0,SW,8.1,-,N/A,,Overcast,230,2013-11-26 04:15:00
10:35 PM,28.4,24.8,86,30.04,10.0,SW,5.8,-,N/A,,Overcast,230,2013-11-26 04:35:00
10:55 PM,28.4,24.8,86,30.04,10.0,WSW,8.1,-,N/A,,Overcast,240,2013-11-26 04:55:00
11:15 PM,28.4,24.8,86,30.04,10.0,WSW,6.9,-,N/A,,Overcast,240,2013-11-26 05:15:00
11:35 PM,28.4,24.8,86,30.03,10.0,WSW,8.1,-,N/A,,Overcast,240,2013-11-26 05:35:00
11:55 PM,28.4,24.8,86,30.03,10.0,WSW,8.1,-,N/A,,Overcast,240,2013-11-26 05:55:00